Location: ?????????
(55.6553°N, 38.9075°E)
Time: 06:48:51
(UTC+00:00)

Cosmos 1536 Rocket - Pass Details

Date: 18 October 2019
Orbit: 606 x 632 km, 82.5° (Epoch: 15 November)

Event Time Altitude Azimuth Distance (km) Brightness Sun altitude
Exits shadow 01:40:53 23° 191° (S) 1,290 4.9 -20.2°
Maximum altitude 01:43:31 90° 286° (WNW) 616 3.4 -19.9°
Drops below altitude 10° 01:47:54 10° 12° (NNE) 1,976 6.4 -19.3°
Sets 01:50:08 0° 13° (NNE) 2,888 7.3 -19.0°
